ETV Beaufort SC US WEATHERSTEM current weather conditions

sailwx.info

Wind from 212 at 0 knots gusting 3

Air temperature 21.5° C
Dewpoint 10.9° C

Last reported at 2019-Nov-11 20:00 UTC.
Time now 2019-Nov-11 21:13 UTC

Location: N 32°25' W 080°41'.
View on Google Maps.

See reports from other nearby stations

  
Tides and Currents Weather Stations Pressure Air Temp Water Temp Dewpoint Dewpoint Depression Visibility Wind Speed Wind Dir Waves Ship Positions
date/time (UTC)wind fromknots sea level pressurealtimeterstation pressurevisibilityair tempwater tempwave heightnotes
2019-Nov-11 20:00 212 0 gusting 3 21.5
2019-Nov-11 19:50 225 21.2
2019-Nov-11 19:40 258 5 gusting 5 21.1
2019-Nov-11 19:30 253 0 gusting 5 21.4
2019-Nov-11 19:20 225 1 gusting 6 21.0
2019-Nov-11 19:10 296 4 gusting 6 20.9
2019-Nov-11 19:00 223 0 gusting 6 20.7
2019-Nov-11 18:50 296 3 gusting 6 20.7
2019-Nov-11 18:40 184 2 gusting 6 20.4
2019-Nov-11 18:30 267 0 gusting 5 20.4
2019-Nov-11 18:20 233 1 gusting 5 20.3
2019-Nov-11 18:10 168 0 gusting 7 19.9
2019-Nov-11 18:00 196 1 gusting 5 19.9
2019-Nov-11 17:40 227 4 gusting 6 19.8
2019-Nov-11 17:30 220 3 gusting 4 19.9
2019-Nov-11 17:20 154 2 gusting 3 19.6
2019-Nov-11 17:10 220 0 gusting 5 19.2
2019-Nov-11 17:00 248 2 gusting 6 18.9
2019-Nov-11 16:50 279 0 gusting 5 18.6
2019-Nov-11 16:40 286 3 gusting 5 18.6
2019-Nov-11 16:30 267 3 gusting 5 18.4
2019-Nov-11 16:20 202 0 gusting 3 18.2
2019-Nov-11 16:10 232 1 gusting 3 17.9
2019-Nov-11 16:00 246 3 gusting 3 17.4
2019-Nov-11 15:50 275 3 gusting 5 16.9
2019-Nov-11 15:40 277 2 gusting 3 17.0
2019-Nov-11 15:30 275 3 gusting 5 16.5
2019-Nov-11 15:20 285 2 gusting 5 16.1
2019-Nov-11 15:10 236 1 gusting 3 15.9
2019-Nov-11 15:00 262 1 gusting 5 15.6
2019-Nov-11 14:50 271 1 gusting 3 15.1
2019-Nov-11 14:40 281 1 gusting 2 14.6
2019-Nov-11 14:30 284 0 gusting 0 14.3
2019-Nov-11 14:20 13.7
2019-Nov-11 14:10 13.4
2019-Nov-11 14:00 284 1 gusting 2 13.0
2019-Nov-11 13:50 284 1 gusting 1 12.4
2019-Nov-11 13:40 284 1 gusting 2 11.8
2019-Nov-11 13:30 284 1 gusting 2 11.3
2019-Nov-11 13:20 290 1 gusting 2 10.9
2019-Nov-11 13:10 290 0 gusting 2 10.6
2019-Nov-11 13:00 290 1 gusting 1 10.2
2019-Nov-11 12:50 290 0 gusting 1 9.9
2019-Nov-11 12:40 290 9.5
2019-Nov-11 12:30 290 0 gusting 1 9.4
2019-Nov-11 12:20 290 0 gusting 1 9.2
2019-Nov-11 12:10 9.4
2019-Nov-11 12:00 9.3
2019-Nov-11 11:50 261 1 gusting 2 9.2
2019-Nov-11 11:40 261 2 gusting 3 9.1
2019-Nov-11 11:30 260 2 gusting 2 9.1
2019-Nov-11 11:20 257 0 gusting 1 9.7
2019-Nov-11 11:10 9.2
2019-Nov-11 11:00 257 0 gusting 0 8.9
2019-Nov-11 10:50 257 0 gusting 1 9.1
2019-Nov-11 10:40 257 0 gusting 1 9.3
2019-Nov-11 10:30 9.3
2019-Nov-11 10:20 257 1 gusting 2 8.8
2019-Nov-11 10:10 257 1 gusting 2 8.9
2019-Nov-11 10:00 257 2 gusting 2 8.9
2019-Nov-11 09:50 257 2 gusting 2 9.1
2019-Nov-11 09:40 257 1 gusting 2 9.3
2019-Nov-11 09:30 257 1 gusting 2 9.2
2019-Nov-11 09:20 257 1 gusting 2 9.1
2019-Nov-11 09:00 257 1 gusting 2 9.4
2019-Nov-11 08:50 257 1 gusting 2 9.6
2019-Nov-11 08:40 257 1 gusting 2 10.0
2019-Nov-11 08:30 257 1 gusting 2 10.3
2019-Nov-11 08:20 11.1
2019-Nov-11 08:10 10.8
2019-Nov-11 08:00 10.3
2019-Nov-11 07:50 9.7
2019-Nov-11 07:40 257 1 gusting 2 9.6
2019-Nov-11 07:30 257 1 gusting 1 9.6
2019-Nov-11 07:20 257 1 gusting 2 9.7
2019-Nov-11 07:00 257 2 gusting 2 10.0
2019-Nov-11 06:50 257 1 gusting 2 10.1
2019-Nov-11 06:40 257 0 gusting 1 10.3
2019-Nov-11 06:30 10.6
2019-Nov-11 06:20 257 1 gusting 3 10.4
2019-Nov-11 06:10 257 2 gusting 3 10.6
2019-Nov-11 06:00 239 2 gusting 3 10.7
2019-Nov-11 05:50 223 2 gusting 2 11.3
2019-Nov-11 05:40 223 0 gusting 1 11.6
2019-Nov-11 05:30 11.7
2019-Nov-11 05:20 11.7
2019-Nov-11 05:10 11.3
2019-Nov-11 05:00 223 0 gusting 1 11.1
2019-Nov-11 04:50 223 1 gusting 2 11.2
2019-Nov-11 04:40 223 2 gusting 2 11.4
2019-Nov-11 04:30 223 2 gusting 2 11.7
2019-Nov-11 04:20 194 0 gusting 1 12.2
2019-Nov-11 04:10 12.5
2019-Nov-11 04:00 12.5
2019-Nov-11 03:50 12.4
2019-Nov-11 03:40 194 0 gusting 1 12.6
2019-Nov-11 03:30 12.5
2019-Nov-11 03:20 194 0 gusting 1 12.7
2019-Nov-11 03:10 194 12.8
2019-Nov-11 03:00 12.7
2019-Nov-11 02:50 12.8
2019-Nov-11 02:40 13.0
2019-Nov-11 02:30 13.1
2019-Nov-11 02:20 13.1
2019-Nov-11 02:10 194 0 gusting 2 12.9
2019-Nov-11 02:00 194 0 gusting 2 12.9
2019-Nov-11 01:50 194 1 gusting 2 13.2
2019-Nov-11 01:40 194 2 gusting 2 13.2
2019-Nov-11 01:30 194 0 gusting 2 13.4
2019-Nov-11 01:20 194 1 gusting 2 13.2
2019-Nov-11 01:10 198 1 gusting 2 13.3
2019-Nov-11 01:00 198 1 gusting 3 13.1
2019-Nov-11 00:50 198 0 gusting 2 13.2
2019-Nov-11 00:40 198 0 gusting 4 13.0
2019-Nov-11 00:30 198 0 gusting 3 13.3
2019-Nov-11 00:20 198 0 gusting 4 13.6
2019-Nov-11 00:10 157 0 gusting 4 13.6
2019-Nov-11 00:00 202 1 gusting 5 13.4
2019-Nov-10 23:50 209 1 gusting 3 13.2
2019-Nov-10 23:40 202 1 gusting 3 13.2
2019-Nov-10 23:30 205 13.1
2019-Nov-10 23:20 205 0 gusting 1 13.2
2019-Nov-10 23:10 205 0 gusting 3 13.9
2019-Nov-10 23:00 198 2 gusting 6 14.3
2019-Nov-10 22:50 178 1 gusting 2 14.4
2019-Nov-10 22:40 178 0 gusting 2 15.2
2019-Nov-10 22:30 192 1 gusting 2 15.7
2019-Nov-10 22:20 192 0 gusting 1 16.2
2019-Nov-10 22:10 192 16.2
2019-Nov-10 22:00 16.5
2019-Nov-10 21:50 192 16.9
2019-Nov-10 21:40 192 16.9
2019-Nov-10 21:30 192 0 gusting 3 17.0
2019-Nov-10 21:20 206 2 gusting 2 17.3
2019-Nov-10 21:10 206 1 gusting 2 17.4
2019-Nov-10 21:00 206 0 gusting 2 17.3
2019-Nov-10 20:50 280 1 gusting 2 17.1
2019-Nov-10 20:40 144 0 gusting 3 16.7
2019-Nov-10 20:30 149 0 gusting 2 16.9
2019-Nov-10 20:20 138 1 gusting 4 16.7
2019-Nov-10 20:10 107 1 gusting 4 16.7
2019-Nov-10 20:00 150 0 gusting 4 16.7
2019-Nov-10 19:50 162 1 gusting 4 16.5
2019-Nov-10 19:40 132 2 gusting 4 16.3
2019-Nov-10 19:30 129 0 gusting 3 15.9
2019-Nov-10 19:20 071 0 gusting 3 15.8
2019-Nov-10 19:10 15.3
2019-Nov-10 19:00 072 2 gusting 4 15.3
2019-Nov-10 18:50 067 2 gusting 3 15.2
2019-Nov-10 18:40 069 1 gusting 4 15.0
2019-Nov-10 18:30 071 2 gusting 3 15.1
2019-Nov-10 18:20 076 0 gusting 3 14.7
2019-Nov-10 18:10 092 1 gusting 5 15.1
2019-Nov-10 18:00 088 1 gusting 2 14.5
2019-Nov-10 17:50 083 1 gusting 5 14.3
2019-Nov-10 17:40 093 0 gusting 4 14.4
2019-Nov-10 17:30 082 2 gusting 3 14.2
2019-Nov-10 17:10 325 0 gusting 5 13.9
2019-Nov-10 17:00 331 2 gusting 3 13.7
2019-Nov-10 16:50 268 2 gusting 6 13.4
2019-Nov-10 16:40 355 2 gusting 7 13.2
2019-Nov-10 16:30 062 4 gusting 5 13.2
2019-Nov-10 16:20 064 3 gusting 7 12.8
2019-Nov-10 16:10 032 0 gusting 7 12.7
2019-Nov-10 16:00 297 4 gusting 5 12.4
2019-Nov-10 15:50 044 0 gusting 6 12.3
2019-Nov-10 15:40 338 4 gusting 6 12.2
2019-Nov-10 15:30 321 4 gusting 6 12.1
2019-Nov-10 15:20 044 3 gusting 7 11.8
2019-Nov-10 15:10 017 4 gusting 6 11.5
2019-Nov-10 15:00 065 4 gusting 8 11.3
2019-Nov-10 14:50 058 3 gusting 8 11.1
2019-Nov-10 14:40 028 2 gusting 7 10.8
2019-Nov-10 14:30 061 3 gusting 6 10.6
2019-Nov-10 14:20 046 4 gusting 8 10.1
2019-Nov-10 14:10 045 2 gusting 6 10.2
2019-Nov-10 14:00 024 5 gusting 6 10.0
2019-Nov-10 13:50 039 3 gusting 6 9.7
2019-Nov-10 13:40 042 1 gusting 3 9.2
2019-Nov-10 13:30 049 2 gusting 3 8.8
2019-Nov-10 13:20 320 0 gusting 3 8.7
2019-Nov-10 13:10 305 1 gusting 2 8.3
2019-Nov-10 13:00 328 0 gusting 3 7.7
2019-Nov-10 12:50 332 2 gusting 4 7.2
2019-Nov-10 12:40 309 1 gusting 2 6.8
2019-Nov-10 12:30 309 0 gusting 2 6.2
2019-Nov-10 12:20 287 1 gusting 1 5.9
2019-Nov-10 12:10 287 1 gusting 1 5.7
2019-Nov-10 12:00 286 1 gusting 2 5.5
2019-Nov-10 11:50 295 2 gusting 4 5.4
2019-Nov-10 11:40 294 2 gusting 3 5.5
2019-Nov-10 11:30 294 0 gusting 1 5.6
2019-Nov-10 11:20 294 0 gusting 2 5.6
2019-Nov-10 11:10 294 0 gusting 3 5.7
2019-Nov-10 11:00 313 2 gusting 2 5.6
2019-Nov-10 10:50 320 0 gusting 2 5.7
2019-Nov-10 10:40 5.8
2019-Nov-10 10:30 360 0 gusting 2 5.7
2019-Nov-10 10:20 333 2 gusting 2 5.4
2019-Nov-10 10:10 333 0 gusting 3 5.3
2019-Nov-10 10:00 297 1 gusting 2 5.6
2019-Nov-10 09:50 297 1 gusting 3 5.5
2019-Nov-10 09:40 306 1 gusting 2 5.5
2019-Nov-10 09:30 327 1 gusting 1 5.6
2019-Nov-10 09:20 327 0 gusting 2 5.8
2019-Nov-10 09:10 333 1 gusting 4 5.7
2019-Nov-10 09:00 309 2 gusting 3 5.7
2019-Nov-10 08:50 348 2 gusting 2 5.7
2019-Nov-10 08:40 328 0 gusting 3 5.7
2019-Nov-10 08:30 329 1 gusting 3 5.8
2019-Nov-10 08:20 296 2 gusting 3 5.8
2019-Nov-10 08:10 297 2 gusting 3 6.1
2019-Nov-10 08:00 333 1 gusting 2 6.2
2019-Nov-10 07:50 330 1 gusting 5 6.2
2019-Nov-10 07:40 323 3 gusting 6 6.3
2019-Nov-10 07:30 313 2 gusting 5 6.4
2019-Nov-10 07:20 316 3 gusting 7 6.5
2019-Nov-10 07:10 355 3 gusting 8 6.6
2019-Nov-10 07:00 341 4 gusting 7 6.6
2019-Nov-10 06:50 332 5 gusting 5 6.7
2019-Nov-10 06:40 315 5 gusting 6 6.7
2019-Nov-10 06:30 315 2 gusting 5 6.8
2019-Nov-10 06:20 304 1 gusting 4 6.8
2019-Nov-10 06:10 311 2 gusting 5 7.0
2019-Nov-10 06:00 311 5 gusting 5 7.2
2019-Nov-10 05:50 300 3 gusting 5 7.3
2019-Nov-10 05:30 313 4 gusting 6 7.6
2019-Nov-10 05:20 313 4 gusting 5 7.6
2019-Nov-10 05:10 296 2 gusting 4 7.8
2019-Nov-10 05:00 323 1 gusting 3 7.9
2019-Nov-10 04:50 312 2 gusting 4 8.1
2019-Nov-10 04:40 315 2 gusting 3 8.2
2019-Nov-10 04:30 329 2 gusting 3 8.2
2019-Nov-10 04:20 334 2 gusting 3 8.3
2019-Nov-10 04:10 304 4 gusting 4 8.4
2019-Nov-10 04:00 344 3 gusting 5 8.5
2019-Nov-10 03:50 313 4 gusting 4 8.5
2019-Nov-10 03:40 321 1 gusting 3 8.6
2019-Nov-10 03:30 313 2 gusting 3 8.7
2019-Nov-10 03:20 327 1 gusting 3 9.0
2019-Nov-10 03:10 331 2 gusting 4 9.2
2019-Nov-10 03:00 331 0 gusting 2 9.2
2019-Nov-10 02:50 026 0 gusting 2 9.2
2019-Nov-10 02:40 345 1 gusting 4 9.2
2019-Nov-10 02:30 330 0 gusting 4 9.3
2019-Nov-10 02:20 326 0 gusting 3 9.3
2019-Nov-10 02:10 317 1 gusting 2 9.3
2019-Nov-10 02:00 330 2 gusting 4 9.4
2019-Nov-10 01:50 325 2 gusting 4 9.5
2019-Nov-10 01:40 313 3 gusting 4 9.6
2019-Nov-10 01:30 326 2 gusting 4 9.7
2019-Nov-10 01:20 314 1 gusting 4 9.7
2019-Nov-10 01:10 308 2 gusting 3 10.0
2019-Nov-10 01:00 330 1 gusting 3 10.4
2019-Nov-10 00:50 344 1 gusting 3 10.4
2019-Nov-10 00:40 336 1 gusting 3 10.4
2019-Nov-10 00:30 348 2 gusting 4 10.3
2019-Nov-10 00:20 315 1 gusting 5 10.5
2019-Nov-10 00:10 318 2 gusting 3 10.7
2019-Nov-10 00:00 325 2 gusting 4 11.0
2019-Nov-09 23:50 331 1 gusting 3 11.0
2019-Nov-09 23:40 331 3 gusting 3 11.1
2019-Nov-09 23:30 340 1 gusting 3 11.2
2019-Nov-09 23:20 337 1 gusting 3 11.3
2019-Nov-09 23:10 322 1 gusting 3 11.3
2019-Nov-09 23:00 322 2 gusting 3 11.3
2019-Nov-09 22:50 329 2 gusting 4 11.6
2019-Nov-09 22:40 324 3 gusting 4 11.7
2019-Nov-09 22:30 355 0 gusting 5 11.9
2019-Nov-09 22:20 336 2 gusting 4 12.2
2019-Nov-09 22:10 346 0 gusting 2 12.4
2019-Nov-09 22:00 360 1 gusting 3 12.6
2019-Nov-09 21:50 355 0 gusting 4 12.7
2019-Nov-09 21:40 024 2 gusting 3 12.8
2019-Nov-09 21:30 033 2 gusting 4 12.8
2019-Nov-09 21:20 030 1 gusting 6 12.8
2019-Nov-09 21:10 040 4 gusting 7 12.9
2019-Nov-09 21:00 022 2 gusting 6 12.9